﻿METLOCID,DATE_TIME,AVG_SURFTEMP,STDDEV_SURFTEMP,MIN_SURFTEMP,MAX_SURFTEMP,N_SURFTEMP,N_COMMENTS
CAAM,1/28/05,-7.159777778,2.673734611,-12.17,-3.71,45,45
CAAM,1/29/05,-9.684166667,3.074171747,-15.16,-5.1,96,96
CAAM,1/30/05,-10.09447917,2.89715064,-15.49,-5.99,96,96
CAAM,1/31/05,-10.90125,2.848088648,-16.46,-6.68,96,96
CAAM,2/1/05,-10.8840625,2.721450301,-15.64,-5.66,96,96
CAAM,2/2/05,-10.56739583,2.990445925,-15.8,-6.2,96,96
CAAM,2/3/05,-8.820625,3.596653946,-15.72,-4.68,96,96
CAAM,2/4/05,-9.959375,1.996352364,-14.29,-5.95,96,96
CAAM,2/5/05,-8.785416667,3.634690146,-16.12,-4.08,96,96
CAAM,2/6/05,-8.843125,4.481223356,-26.62,-4.5,96,96
CAAM,2/7/05,-8.965208333,3.519478125,-14.73,-4.26,96,96
CAAM,2/8/05,-12.934375,12.07703648,-53.36,-4.61,96,96
CAAM,2/9/05,-11.21552083,2.574839339,-15.63,-7.18,96,96
CAAM,2/10/05,-12.28114583,2.938541661,-27.16,-7.97,96,96
CAAM,2/11/05,-12.860625,3.568295425,-34.18,-9.73,96,96
CAAM,2/12/05,-13.12229167,5.996658452,-38.99,-4.94,96,96
CAAM,2/13/05,-12.86270833,10.17577241,-41.06,-5.01,96,96
CAAM,2/14/05,-13.02197917,12.03434765,-48.52,-4.66,96,96
CAAM,2/15/05,-13.94052083,9.372126352,-47.49,-6.47,96,96
CAAM,2/16/05,-15.77458333,14.39406273,-61.42,-7.48,96,96
CAAM,2/17/05,-17.4409375,15.63151466,-64.89,-4.88,96,96
CAAM,2/18/05,-19.52729167,19.00324551,-65.92,-4.41,96,96
CAAM,2/19/05,-23.09270833,21.04669163,-70.1,-5.1,96,96
CAAM,2/20/05,-24.87447917,23.33170023,-74.1,-8.1,96,96
CAAM,2/21/05,-25.736875,24.65335132,-74.9,-9.15,96,96
CAAM,2/22/05,-28.884375,25.58151478,-75,-2.62,96,96
CAAM,2/23/05,-27.98385417,19.70217703,-71.9,-9.61,96,96
CAAM,2/24/05,-32.19739583,22.33665094,-74.8,-11.8,96,96
CAAM,2/25/05,-28.74927083,24.72747584,-75,-9.37,96,96
CAAM,2/26/05,-29.67979167,25.55907329,-75,-10.48,96,96
CAAM,2/27/05,-31.8346875,24.36023252,-75,-11.87,96,96
CAAM,2/28/05,-33.39166667,24.39954023,-75,-10.92,96,96
CAAM,3/1/05,-32.9259375,25.57935263,-75,-11.4,96,96
CAAM,3/2/05,-31.93895833,28.40068644,-75,-9.38,96,96
CAAM,3/3/05,-37.45375,24.87553807,-75,-14.8,96,96
CAAM,3/4/05,-36.72270833,26.69242157,-75,-11.3,96,96
CAAM,3/5/05,-36.924375,28.07185179,-75,-12.2,96,96
CAAM,3/6/05,-37.01614583,27.20002374,-75,-8.62,96,96
CAAM,3/7/05,-38.9959375,26.79992598,-75,-13.61,96,96
CAAM,3/8/05,-42.68802083,24.15555303,-75,-13.62,96,96
CAAM,3/9/05,-42.5778125,24.94809223,-75,-11.43,96,96
CAAM,3/10/05,-43.3,24.67429713,-75,-12.74,96,96
CAAM,3/11/05,-41.65833333,26.62528156,-75,-14.24,96,96
CAAM,3/12/05,-44.85677083,24.55675945,-75,-16.98,96,96
CAAM,3/13/05,-43.92583333,25.45146161,-75,-17.44,96,96
CAAM,3/14/05,-45.28114583,25.66787285,-75,-11.33,96,96
CAAM,3/15/05,-45.72041667,26.02663029,-75,-14.98,96,96
CAAM,3/16/05,-47.26895833,24.6174551,-75,-20.79,96,96
CAAM,3/17/05,-48.45260417,24.19819063,-75,-13.65,96,96
CAAM,3/18/05,-48.555,24.21249025,-75,-20.26,96,96
CAAM,3/19/05,-46.25802083,27.19259042,-75,-13.33,96,96
CAAM,3/20/05,-49.88864583,23.93843004,-75,-23.35,96,96
CAAM,3/21/05,-48.834375,25.9834619,-75,-18.69,96,96
CAAM,3/22/05,-46.79645833,28.98989766,-75,-11.16,96,96
CAAM,3/23/05,-46.365625,28.9083238,-75,-11.06,96,96
CAAM,3/24/05,-50.4459375,25.58266722,-75,-19.65,96,96
CAAM,3/25/05,-50.49739583,26.17770824,-75,-8.54,96,96
CAAM,3/26/05,-53.08072917,23.86689516,-75,-17.64,96,96
CAAM,3/27/05,-51.53791667,25.9478672,-75,-19.33,96,96
CAAM,3/28/05,-51.15,27.15483247,-75,-15.98,96,96
CAAM,3/29/05,-53.96729167,24.18930523,-75,-22.06,96,96
CAAM,3/30/05,-52.5653125,27.2002142,-75,-6.77,96,96
CAAM,3/31/05,-54.87572917,26.05631245,-75,-11.13,96,96
CAAM,4/1/05,-54.6096875,24.89922922,-75,-12.95,96,96
CAAM,4/2/05,-54.98104167,25.58175577,-75,-11.29,96,96
CAAM,4/3/05,-56.69354167,23.70483597,-75,-15.77,96,96
CAAM,4/4/05,-56.58104167,25.03705227,-75,-9.42,96,96
CAAM,4/5/05,-54.7978125,26.69035261,-75,-14.81,96,96
CAAM,4/6/05,-57.42541667,25.6437041,-75,-13.75,96,96
CAAM,4/7/05,-57.506875,25.27246483,-75,-18,96,96
CAAM,4/8/05,-59.28322917,22.30545449,-75,-5.36,96,96
CAAM,4/9/05,-59.64479167,22.59475882,-75,-4.46,96,96
CAAM,4/10/05,-62.36520833,21.07683248,-75,-7.16,96,96
CAAM,4/11/05,-61.17302083,21.4926289,-75,-17.17,96,96
CAAM,4/12/05,-60.67114583,22.32013195,-75,-14.18,96,96
CAAM,4/13/05,-60.30166667,24.83187687,-75,-4.31,96,96
CAAM,4/14/05,-63.1015625,19.71020453,-75,-14.64,96,96
CAAM,4/15/05,-63.01677083,21.44119255,-75,-4.58,96,96
CAAM,4/16/05,-64.86364583,18.46107986,-75,-20.05,96,96
CAAM,4/17/05,-66.5378125,17.11174895,-75,-13.65,96,96
CAAM,4/18/05,-67.41166667,14.74243797,-75,-29.65,96,96
CAAM,4/19/05,-68.60635417,12.74824398,-75,-34.75,96,96
CAAM,4/20/05,-70.57135417,9.280782705,-75,-45.24,96,96
CAAM,4/21/05,-71.919375,7.411882751,-75,-48.26,96,96
CAAM,4/22/05,-74.43104167,1.685242746,-75,-67.8,96,96
CAAM,4/23/05,-74.201875,2.026445845,-75,-66.94,96,96
CAAM,4/24/05,-74.4215625,1.508293792,-75,-69.51,96,96
CAAM,4/25/05,-74.54552083,1.301652286,-75,-69.49,96,96
CAAM,4/26/05,-73.376875,4.422488538,-75,-55.05,96,96
CAAM,4/27/05,-74.19520833,2.11653738,-75,-67.04,96,96
CAAM,4/28/05,-74.57322917,1.270797922,-75,-69.65,96,96
CAAM,4/29/05,-74.84895833,0.639077426,-75,-71.4,96,96
CAAM,4/30/05,-74.90104167,0.439256499,-75,-72.4,96,96
CAAM,5/1/05,-75,0,-75,-75,96,96
CAAM,5/2/05,-75,0,-75,-75,96,96
CAAM,5/3/05,-75,0,-75,-75,96,96
CAAM,5/4/05,-75,0,-75,-75,96,96
CAAM,5/5/05,-75,0,-75,-75,96,96
CAAM,5/6/05,-75,0,-75,-75,96,96
CAAM,5/7/05,-75,0,-75,-75,96,96
CAAM,5/8/05,-75,0,-75,-75,96,96
CAAM,5/9/05,-75,0,-75,-75,96,96
CAAM,5/10/05,-75,0,-75,-75,96,96
CAAM,5/11/05,-75,0,-75,-75,96,96
CAAM,5/12/05,-75,0,-75,-75,96,96
CAAM,5/13/05,-75,0,-75,-75,96,96
CAAM,5/14/05,-75,0,-75,-75,96,96
CAAM,5/15/05,-75,0,-75,-75,96,96
CAAM,5/16/05,-75,0,-75,-75,96,96
CAAM,5/17/05,-75,0,-75,-75,96,96
CAAM,5/18/05,-75,0,-75,-75,96,96
CAAM,5/19/05,-75,0,-75,-75,96,96
CAAM,5/20/05,-75,0,-75,-75,96,96
CAAM,5/21/05,-75,0,-75,-75,96,96
CAAM,5/22/05,-75,0,-75,-75,96,96
CAAM,5/23/05,-75,0,-75,-75,96,96
CAAM,5/24/05,-75,0,-75,-75,96,96
CAAM,5/25/05,-75,0,-75,-75,96,96
CAAM,5/26/05,-75,0,-75,-75,96,96
CAAM,5/27/05,-75,0,-75,-75,96,96
CAAM,5/28/05,-75,0,-75,-75,96,96
CAAM,5/29/05,-75,0,-75,-75,96,96
CAAM,5/30/05,-75,0,-75,-75,96,96
CAAM,5/31/05,-75,0,-75,-75,96,96
CAAM,6/1/05,-75,0,-75,-75,96,96
CAAM,6/2/05,-75,0,-75,-75,96,96
CAAM,6/3/05,-75,0,-75,-75,96,96
CAAM,6/4/05,-75,0,-75,-75,96,96
CAAM,6/5/05,-75,0,-75,-75,96,96
CAAM,6/6/05,-75,0,-75,-75,96,96
CAAM,6/7/05,-75,0,-75,-75,96,96
CAAM,6/8/05,-75,0,-75,-75,96,96
CAAM,6/9/05,-75,0,-75,-75,96,96
CAAM,6/10/05,-75,0,-75,-75,96,96
CAAM,6/11/05,-75,0,-75,-75,96,96
CAAM,6/12/05,-75,0,-75,-75,96,96
CAAM,6/13/05,-75,0,-75,-75,96,96
CAAM,6/14/05,-75,0,-75,-75,96,96
CAAM,6/15/05,-75,0,-75,-75,96,96
CAAM,6/16/05,-75,0,-75,-75,96,96
CAAM,6/17/05,-75,0,-75,-75,96,96
CAAM,6/18/05,-75,0,-75,-75,96,96
CAAM,6/19/05,-75,0,-75,-75,96,96
CAAM,6/20/05,-75,0,-75,-75,96,96
CAAM,6/21/05,-75,0,-75,-75,96,96
CAAM,6/22/05,-75,0,-75,-75,96,96
CAAM,6/23/05,-75,0,-75,-75,96,96
CAAM,6/24/05,-75,0,-75,-75,96,96
CAAM,6/25/05,-75,0,-75,-75,96,96
CAAM,6/26/05,-75,0,-75,-75,96,96
CAAM,6/27/05,-75,0,-75,-75,96,96
CAAM,6/28/05,-75,0,-75,-75,96,96
CAAM,6/29/05,-75,0,-75,-75,96,96
CAAM,6/30/05,-75,0,-75,-75,96,96
CAAM,7/1/05,-75,0,-75,-75,96,96
CAAM,7/2/05,-75,0,-75,-75,96,96
CAAM,7/3/05,-75,0,-75,-75,96,96
CAAM,7/4/05,-75,0,-75,-75,96,96
CAAM,7/5/05,-75,0,-75,-75,96,96
CAAM,7/6/05,-75,0,-75,-75,96,96
CAAM,7/7/05,-75,0,-75,-75,96,96
CAAM,7/8/05,-75,0,-75,-75,96,96
CAAM,7/9/05,-75,0,-75,-75,96,96
CAAM,7/10/05,-75,0,-75,-75,96,96
CAAM,7/11/05,-75,0,-75,-75,96,96
CAAM,7/12/05,-75,0,-75,-75,96,96
CAAM,7/13/05,-75,0,-75,-75,96,96
CAAM,7/14/05,-75,0,-75,-75,96,96
CAAM,7/15/05,-75,0,-75,-75,96,96
CAAM,7/16/05,-75,0,-75,-75,96,96
CAAM,7/17/05,-75,0,-75,-75,96,96
CAAM,7/18/05,-75,0,-75,-75,96,96
CAAM,7/19/05,-75,0,-75,-75,96,96
CAAM,7/20/05,-75,0,-75,-75,96,96
CAAM,7/21/05,-75,0,-75,-75,96,96
CAAM,7/22/05,-75,0,-75,-75,96,96
CAAM,7/23/05,-75,0,-75,-75,96,96
CAAM,7/24/05,-75,0,-75,-75,96,96
CAAM,7/25/05,-75,0,-75,-75,96,96
CAAM,7/26/05,-75,0,-75,-75,96,96
CAAM,7/27/05,-75,0,-75,-75,96,96
CAAM,7/28/05,-75,0,-75,-75,96,96
CAAM,7/29/05,-75,0,-75,-75,96,96
CAAM,7/30/05,-75,0,-75,-75,96,96
CAAM,7/31/05,-75,0,-75,-75,96,96
CAAM,8/1/05,-75,0,-75,-75,96,96
CAAM,8/2/05,-75,0,-75,-75,96,96
CAAM,8/3/05,-75,0,-75,-75,96,96
CAAM,8/4/05,-75,0,-75,-75,96,96
CAAM,8/5/05,-75,0,-75,-75,96,96
CAAM,8/6/05,-75,0,-75,-75,96,96
CAAM,8/7/05,-75,0,-75,-75,96,96
CAAM,8/8/05,-75,0,-75,-75,96,96
CAAM,8/9/05,-75,0,-75,-75,96,96
CAAM,8/10/05,-75,0,-75,-75,96,96
CAAM,8/11/05,-75,0,-75,-75,96,96
CAAM,8/12/05,-75,0,-75,-75,96,96
CAAM,8/13/05,-75,0,-75,-75,96,96
CAAM,8/14/05,-74.426875,1.590322253,-75,-69.22,96,96
CAAM,8/15/05,-74.40489583,1.595782596,-75,-69.2,96,96
CAAM,8/16/05,-74.3640625,1.700462215,-75,-68.74,96,96
CAAM,8/17/05,-74.06666667,2.376190523,-75,-66.31,96,96
CAAM,8/18/05,-74.971875,0.174538866,-75,-73.8,96,96
CAAM,8/19/05,-70.63760417,11.13411767,-75,-29.39,96,96
CAAM,8/20/05,-69.15208333,14.57073209,-75,-11.97,96,96
CAAM,8/21/05,-72.2075,6.193722459,-75,-55.05,96,96
CAAM,8/22/05,-69.6778125,11.97183767,-75,-33.13,96,96
CAAM,8/23/05,-70.9828125,8.094770723,-75,-48.61,96,96
CAAM,8/24/05,-73.201875,4.402502951,-75,-57.91,96,96
CAAM,8/25/05,-67.88104167,15.42438783,-75,-24.53,96,96
CAAM,8/26/05,-64.77395833,19.26363246,-75,-17.69,96,96
CAAM,8/27/05,-64.9071875,18.25820881,-75,-18.09,96,96
CAAM,8/28/05,-64.4975,18.52732008,-75,-13.93,96,96
CAAM,8/29/05,-62.7928125,20.27651152,-75,-4.32,96,96
CAAM,8/30/05,-62.56729167,21.00305384,-75,-2.6,96,96
CAAM,8/31/05,-62.54916667,19.73474562,-75,-2.29,96,96
CAAM,9/1/05,-61.78833333,19.83936707,-75,-16.01,96,96
CAAM,9/2/05,-60.86489583,21.22337034,-75,-4.07,96,96
CAAM,9/3/05,-60.98020833,20.85828832,-75,-6.31,96,96
CAAM,9/4/05,-59.63229167,21.95244509,-75,-17.69,96,96
CAAM,9/5/05,-59.93072917,21.37786175,-75,-18.36,96,96
CAAM,9/6/05,-59.74927083,20.86968344,-75,-22.22,96,96
CAAM,9/7/05,-57.56197917,23.11868375,-75,-22.19,96,96
CAAM,9/8/05,-56.1546875,24.75465528,-75,-18.45,96,96
CAAM,9/9/05,-57.10479167,22.96169011,-75,-24.29,96,96
CAAM,9/10/05,-56.29447917,22.88589554,-75,-25.63,96,96
CAAM,9/11/05,-56.64197917,22.34787929,-75,-27.66,96,96
CAAM,9/12/05,-56.285,22.73579515,-75,-24.81,96,96
CAAM,9/13/05,-55.9875,22.13939043,-75,-27.75,96,96
CAAM,9/14/05,-51.40604167,27.40855688,-75,-13,96,96
CAAM,9/15/05,-49.31395833,30.43558449,-75,-8.77,96,96
CAAM,9/16/05,-49.850625,28.95309829,-75,-11.81,96,96
CAAM,9/17/05,-49.83833333,27.91151593,-75,-15.6,96,96
CAAM,9/18/05,-50.02625,26.59904036,-75,-13.21,96,96
CAAM,9/19/05,-48.24916667,27.36912997,-75,-16.32,96,96
CAAM,9/20/05,-51.38958333,24.32208613,-75,-22.9,96,96
CAAM,9/21/05,-50.77104167,24.544561,-75,-18.99,96,96
CAAM,9/22/05,-52.16552083,23.06150796,-75,-18.09,96,96
CAAM,9/23/05,-52.214375,22.21118205,-75,-23.74,96,96
CAAM,9/24/05,-52.25385417,21.58999468,-75,-19.81,96,96
CAAM,9/25/05,-52.38458333,21.12824609,-75,-19.04,96,96
CAAM,9/26/05,-52.00760417,21.03466551,-75,-14.3,96,96
CAAM,9/27/05,-51.32833333,21.23369401,-75,-25.22,96,96
CAAM,9/28/05,-50.240625,21.81487628,-75,-18.36,96,96
CAAM,9/29/05,-46.10125,25.19189988,-75,-18.92,96,96
CAAM,9/30/05,-44.06489583,26.6011807,-75,-14.34,96,96
CAAM,10/1/05,-44.92635417,25.73637729,-75,-14.99,96,96
CAAM,10/2/05,-45.15604167,25.48748888,-75,-15.7,96,96
CAAM,10/3/05,-45.19947917,24.43557503,-75,-9.71,96,96
CAAM,10/4/05,-40.34625,27.46556478,-75,-14,96,96
CAAM,10/5/05,-43.59375,23.89235448,-75,-21.43,96,96
CAAM,10/6/05,-40.86583333,25.63479554,-75,-13.71,96,96
CAAM,10/7/05,-42.280625,24.98883514,-75,-12.47,96,96
CAAM,10/8/05,-43.25833333,22.58013881,-75,-17.9,96,96
CAAM,10/9/05,-40.825,23.75981539,-75,-15.94,96,96
CAAM,10/10/05,-42.62020833,22.40136316,-75,-18.76,96,96
CAAM,10/11/05,-36.31166667,26.66348288,-75,-10.87,96,96
CAAM,10/12/05,-38.6409375,25.88168347,-75,-17.22,96,96
CAAM,10/13/05,-34.58177083,27.23994621,-75,-11.37,96,96
CAAM,10/14/05,-33.65395833,26.43793337,-75,-11.89,96,96
CAAM,10/15/05,-32.445,25.31984751,-75,-11.55,96,96
CAAM,10/16/05,-34.1034375,23.58688636,-75,-12.76,96,96
CAAM,10/17/05,-33.9384375,21.97544603,-75,-11.23,96,96
CAAM,10/18/05,-33.6125,21.49661643,-75,-10.03,96,96
CAAM,10/19/05,-32.03833333,21.73593637,-75,-8.78,96,96
CAAM,10/20/05,-29.90677083,21.00448586,-74.4,-12.3,96,96
CAAM,10/21/05,-27.605,24.15490331,-75,-10.21,96,96
CAAM,10/22/05,-24.1765625,21.48320303,-71.7,-7.79,96,96
CAAM,10/23/05,-21.75083333,20.64570401,-68.46,-8.23,96,96
CAAM,10/24/05,-23.90552083,25.74388376,-75,-6.18,96,96
CAAM,10/25/05,-21.04322917,16.4844051,-62.07,-9.31,96,96
CAAM,10/26/05,-19.19364583,15.68427004,-59.7,-8.51,96,96
CAAM,10/27/05,-17.02927083,15.38942995,-58.53,-4.75,96,96
CAAM,10/28/05,-16.4384375,11.29179948,-51.92,-7.41,96,96
CAAM,10/29/05,-15.6515625,9.397608803,-47.81,-8.05,96,96
CAAM,10/30/05,-13.60208333,8.209468464,-43.3,-6.97,96,96
CAAM,10/31/05,-13.35,8.174440139,-42.21,-7.08,96,96
CAAM,11/1/05,-12.12166667,5.601582421,-35.16,-5.77,96,96
CAAM,11/2/05,-13.41197917,11.42303625,-48.43,-3.45,96,96
CAAM,11/3/05,-9.540833333,7.762474194,-35.14,-2.21,96,96
CAAM,11/4/05,-9.454895833,3.724273718,-23.95,-4.47,96,96
CAAM,11/5/05,-9.974270833,2.988548933,-27.15,-5.63,96,96
CAAM,11/6/05,-9.686770833,2.934633661,-14.52,-4.67,96,96
CAAM,11/7/05,-9.8321875,4.152987816,-26.93,-5.04,96,96
CAAM,11/8/05,-8.908645833,2.832746341,-13.66,-4.81,96,96
CAAM,11/9/05,-9.318854167,1.601572168,-12.07,-5.73,96,96
CAAM,11/10/05,-9.601875,2.976003435,-14.76,-4.67,96,96
CAAM,11/11/05,-8.186666667,2.973510655,-12.59,-4.28,96,96
CAAM,11/12/05,-6.259375,1.364665228,-14.85,-4.58,96,96
CAAM,11/13/05,-6.606770833,3.231563576,-21.31,-1.38,96,96
CAAM,11/14/05,-4.981458333,1.664358248,-8.19,-1.78,96,96
CAAM,11/15/05,-56.52583333,29.82603408,-75,-7.01,96,96
CAAM,11/16/05,-75,0,-75,-75,96,96
CAAM,11/17/05,-75,0,-75,-75,96,96
CAAM,11/18/05,-75,0,-75,-75,96,96
CAAM,11/19/05,-75,0,-75,-75,96,96
CAAM,11/20/05,-75,0,-75,-75,96,96
CAAM,11/21/05,-75,0,-75,-75,96,96
CAAM,11/22/05,-75,0,-75,-75,96,96
CAAM,11/23/05,-75,0,-75,-75,96,96
CAAM,11/24/05,-75,0,-75,-75,96,96
CAAM,11/25/05,-75,0,-75,-75,96,96
CAAM,11/26/05,-75,0,-75,-75,96,96
CAAM,11/27/05,-75,0,-75,-75,96,96
CAAM,11/28/05,-75,0,-75,-75,96,96
CAAM,11/29/05,-75,0,-75,-75,96,96
CAAM,11/30/05,-75,0,-75,-75,96,96
CAAM,12/1/05,-75,0,-75,-75,96,96
CAAM,12/2/05,-75,0,-75,-75,96,96
CAAM,12/3/05,-75,0,-75,-75,96,96
CAAM,12/4/05,-75,0,-75,-75,96,96
CAAM,12/5/05,-75,0,-75,-75,96,96
CAAM,12/6/05,-75,0,-75,-75,96,96
CAAM,12/7/05,-75,0,-75,-75,96,96
CAAM,12/8/05,-40.97884211,37.61199743,-75,1.42,95,56
CAAM,12/9/05,-0.280833333,0.700397882,-2.9,1.25,96,0
CAAM,12/10/05,-0.197604167,0.881208195,-2.62,1.33,96,0
CAAM,12/11/05,-3.650625,2.180643465,-9.9,-0.74,96,0
CAAM,12/12/05,-4.358958333,1.951920231,-9.33,-1.03,96,0
CAAM,12/13/05,-3.083020833,1.57071698,-6.93,0.1,96,0
CAAM,12/14/05,-3.873333333,1.757865133,-7.69,-0.54,96,0
CAAM,12/15/05,-3.716041667,1.400391283,-7.29,-1.7,96,0
CAAM,12/16/05,-3.312395833,1.643156619,-6.85,-0.73,96,0
CAAM,12/17/05,-2.631041667,0.933005871,-5.46,-0.63,96,0
CAAM,12/18/05,-3.224375,0.796892402,-5.54,-1.86,96,0
CAAM,12/19/05,-4.926145833,1.175917442,-7.59,-2.13,96,0
CAAM,12/20/05,-2.203333333,1.56797534,-5.5,1.1,96,0
CAAM,12/21/05,-1.662708333,0.512955275,-3.04,0.1,96,0
CAAM,12/22/05,-1.700104167,1.806126122,-6.68,1.08,96,0
CAAM,12/23/05,-0.1934375,1.242231293,-2.68,1.86,96,0
CAAM,12/24/05,-0.811979167,1.180736273,-4.34,1.33,96,0
CAAM,12/25/05,-1.1853125,1.919266281,-5.62,1.62,96,0
CAAM,12/26/05,-0.917083333,0.767992484,-3.02,0.8,96,0
CAAM,12/27/05,-1.426458333,1.15015878,-4.7,1.23,96,0
CAAM,12/28/05,-2.969270833,1.754850268,-6.49,0.54,96,0
CAAM,12/29/05,-2.993541667,1.581887599,-5.72,-0.37,96,0
CAAM,12/30/05,-3.091666667,2.139560047,-7.88,0.48,96,0
CAAM,12/31/05,-2.120625,1.187403015,-5.44,0.07,96,0
CAAM,1/1/06,-2.578958333,1.332854064,-5.23,0.57,96,0
CAAM,1/2/06,-1.853125,1.277285207,-5.22,0.08,96,0
CAAM,1/3/06,-2.816770833,1.063842583,-5.77,-0.52,96,0
CAAM,1/4/06,-3.441145833,1.603555832,-6.8,-0.72,96,0
CAAM,1/5/06,-2.678229167,0.502499007,-4.39,-1.34,96,0
CAAM,1/6/06,-3.22625,1.191571497,-6.83,-1.16,96,0
CAAM,1/7/06,-4.713645833,1.906255696,-7.53,-1.59,96,0
CAAM,1/8/06,-4.253125,1.706823034,-7.24,-1.22,96,0
CAAM,1/9/06,-4.359166667,1.727199538,-7.44,-1.44,96,0
CAAM,1/10/06,-3.489791667,1.510697977,-6.19,-0.71,96,0
CAAM,1/11/06,-2.37375,0.949841261,-4.35,0.81,96,0
CAAM,1/12/06,-2.450833333,0.907240659,-4.4,-0.2,96,0
CAAM,1/13/06,-2.737708333,1.674451665,-6.76,0.92,96,0
CAAM,1/14/06,-2.204375,1.055386996,-3.62,0.56,96,0
CAAM,1/15/06,-1.6771875,1.476917632,-4.51,1.39,96,0
CAAM,1/16/06,-1.13375,0.778349468,-3.67,0.53,96,0
CAAM,1/17/06,-1.732916667,0.785508105,-3.25,0.63,96,0
CAAM,1/18/06,-0.223229167,0.774283363,-2.96,1.97,96,0
CAAM,1/19/06,-2.012083333,0.571947581,-3.32,-0.33,96,0
CAAM,1/20/06,-3.07625,1.355448459,-5.28,0.19,96,0
CAAM,1/21/06,-2.879270833,1.600513237,-5.52,-0.2,96,0
CAAM,1/22/06,-2.599583333,1.477750721,-5.65,-0.24,96,0
CAAM,1/23/06,-2.578854167,1.20630176,-6.18,-0.42,96,0
CAAM,1/24/06,-3.33375,1.47526358,-6.18,-0.21,96,0
CAAM,1/25/06,-3.775729167,1.328196042,-6.1,-0.65,96,0
CAAM,1/26/06,-5.674479167,1.511907732,-8.51,-2.33,96,0
CAAM,1/27/06,-4.674166667,1.7446198,-8.09,-1.48,96,0
CAAM,1/28/06,-3.718125,1.157893107,-6.08,-1.09,96,0
CAAM,1/29/06,-3.448958333,1.049217733,-5.19,-1.1,96,0
CAAM,1/30/06,-3.899479167,0.758783472,-5.71,-2.27,96,0
CAAM,1/31/06,-4.738333333,1.154741864,-6.91,-2.03,96,0
CAAM,2/1/06,-6.0440625,1.529831486,-8.41,-3.08,96,0
CAAM,2/2/06,-5.6103125,1.823164659,-8.74,-2.21,96,0
CAAM,2/3/06,-5.11625,1.916995593,-8.08,-2.01,96,0
CAAM,2/4/06,-4.589583333,1.613517841,-7.14,-1.5,96,0
CAAM,2/5/06,-3.475833333,1.219571682,-7.65,-1.44,96,0
CAAM,2/6/06,-5.639479167,0.961019601,-7.27,-3.49,96,0
CAAM,2/7/06,-10.37177083,2.07823052,-15.29,-6.87,96,0
CAAM,2/8/06,-13.05177083,2.180659965,-16.48,-9.3,96,0
CAAM,2/9/06,-12.179375,1.596822379,-15.47,-9.05,96,0
CAAM,2/10/06,-11.1875,1.494412048,-14.53,-8.35,96,0
CAAM,2/11/06,-11.5540625,1.624117301,-14.29,-8.71,96,0
CAAM,2/12/06,-11.33010417,1.805570034,-15.03,-8.36,96,0
CAAM,2/13/06,-10.5553125,2.603872401,-14.26,-4.87,96,0
CAAM,2/14/06,-10.24,1.237472807,-12.37,-7.94,96,0
CAAM,2/15/06,-11.42635417,1.63980045,-14.58,-8.16,96,0
CAAM,2/16/06,-11.30229167,1.636433528,-13.97,-7.64,96,0
CAAM,2/17/06,-9.547083333,1.626827016,-13.77,-7.11,96,0
CAAM,2/18/06,-10.11,2.321750701,-14.24,-6.28,96,0
CAAM,2/19/06,-6.406354167,0.753976294,-8.02,-4.6,96,0
CAAM,2/20/06,-7.518854167,1.9206325,-11.72,-4.84,96,0
CAAM,2/21/06,-8.586041667,1.248394741,-11.53,-6.26,96,0
CAAM,2/22/06,-10.535,1.441071239,-13.45,-7.66,96,0
CAAM,2/23/06,-10.025625,2.082337155,-13.65,-6.66,96,0
CAAM,2/24/06,-8.401041667,0.767078503,-10.15,-7.2,96,0
CAAM,2/25/06,-9.431875,3.138626355,-18.51,-6.3,96,0
CAAM,2/26/06,-10.27166667,3.415325419,-19.28,-6.53,96,0
CAAM,2/27/06,-9.842083333,4.128964676,-18.86,-5.57,96,0
CAAM,2/28/06,-18.57708333,2.539426341,-23.01,-12.28,96,0
CAAM,3/1/06,-18.76625,2.837662585,-24.52,-14.5,96,0
CAAM,3/2/06,-15.09697917,2.105594113,-20.64,-12.34,96,0
CAAM,3/3/06,-18.89916667,2.59530656,-21.5,-10.21,96,0
CAAM,3/4/06,-12.1553125,1.51564817,-15.56,-9.95,96,0
CAAM,3/5/06,-15.32166667,1.074001535,-17.43,-12.58,96,0
CAAM,3/6/06,-16.83020833,0.709189276,-18.19,-15.14,96,0
CAAM,3/7/06,-16.38041667,1.753232153,-19.03,-13.8,96,0
CAAM,3/8/06,-18.8365625,1.28594166,-21.45,-15.62,96,0
CAAM,3/9/06,-19.24916667,0.751494884,-20.72,-17.09,96,0
CAAM,3/10/06,-18.50104167,0.828542765,-20.42,-16.88,96,0
CAAM,3/11/06,-16.2928125,2.171944413,-20.69,-12.99,96,0
CAAM,3/12/06,-12.94416667,1.4742896,-15.37,-10.42,96,0
CAAM,3/13/06,-14.20927083,0.927802434,-16.53,-11.61,96,0
CAAM,3/14/06,-16.72083333,1.678276476,-19.51,-13.03,96,0
CAAM,3/15/06,-17.49114583,1.414244727,-20.17,-14.58,96,0
CAAM,3/16/06,-17.90489583,2.150791284,-21.57,-14.08,96,0
CAAM,3/17/06,-22.56875,0.822623851,-24.02,-20.83,96,0
CAAM,3/18/06,-23.6996875,0.459350693,-24.96,-22.17,96,0
CAAM,3/19/06,-24.8825,1.14347117,-26.75,-21.69,96,0
CAAM,3/20/06,-24.8534375,0.91067682,-26.69,-22.31,96,0
CAAM,3/21/06,-24.2078125,2.049051233,-26.82,-20.02,96,0
CAAM,3/22/06,-18.97375,1.480547018,-22.15,-16.53,96,0
CAAM,3/23/06,-19.90052083,1.37980042,-24.44,-17.76,96,0
CAAM,3/24/06,-19.83072917,1.91858075,-26.08,-17.25,96,0
CAAM,3/25/06,-22.59364583,1.656775638,-26.2,-19.65,96,0
CAAM,3/26/06,-25.18552083,1.502595558,-27.67,-19.18,96,0
CAAM,3/27/06,-19.18114583,1.113634042,-21.63,-16.96,96,0
CAAM,3/28/06,-20.96760417,2.499227984,-26.1,-16.29,96,0
CAAM,3/29/06,-21.9396875,3.226943626,-26.53,-17.42,96,0
CAAM,3/30/06,-21.49447917,2.55794896,-25.69,-16.76,96,0
CAAM,3/31/06,-25.6365625,1.330291482,-28.13,-22.63,96,0
CAAM,4/1/06,-25.25166667,2.463597996,-28.79,-20.21,96,0
CAAM,4/2/06,-21.36708333,1.112763196,-23.99,-18.44,96,0
CAAM,4/3/06,-22.04239583,2.335090552,-24.8,-16.94,96,0
CAAM,4/4/06,-26.02395833,0.947570277,-27.79,-23.92,96,0
CAAM,4/5/06,-25.90760417,1.259159072,-28.04,-23.05,96,0
CAAM,4/6/06,-26.63510417,0.591917481,-28.04,-25.63,96,0
CAAM,4/7/06,-27.99,0.518475498,-29.07,-26.18,96,0
CAAM,4/8/06,-29.53979167,0.62314648,-30.86,-28.43,96,0
CAAM,4/9/06,-28.71604167,2.067078019,-31.21,-22.74,96,0
CAAM,4/10/06,-20.7096875,0.998546789,-23.37,-18.34,96,0
CAAM,4/11/06,-24.45427083,2.005067131,-26.6,-19.89,96,0
CAAM,4/12/06,-27.15052083,0.855606119,-28.73,-25.69,96,0
CAAM,4/13/06,-27.77458333,0.777507376,-29.39,-26.03,96,0
CAAM,4/14/06,-27.74270833,0.610546742,-28.7,-25.99,96,0
CAAM,4/15/06,-28.79052083,0.367327102,-29.51,-27.69,96,0
CAAM,4/16/06,-29.87197917,0.368595113,-30.49,-28.7,96,0
CAAM,4/17/06,-28.03864583,0.705216085,-29.41,-26.2,96,0
CAAM,4/18/06,-30.036875,0.453838164,-30.78,-28.4,96,0
CAAM,4/19/06,-30.86260417,0.470594797,-32.19,-30.08,96,0
CAAM,4/20/06,-31.71645833,0.189603349,-32.01,-31.32,96,0
CAAM,4/21/06,-33.07239583,0.686422832,-34.18,-31.6,96,0
CAAM,4/22/06,-33.04,1.206255624,-34.25,-29.91,96,0
CAAM,4/23/06,-28.5178125,0.985626387,-30.47,-26.51,96,0
CAAM,4/24/06,-28.72604167,0.737285889,-30.18,-26.24,96,0
CAAM,4/25/06,-23.98020833,2.055849154,-28.25,-18.32,96,0
CAAM,4/26/06,-24.60385417,2.244358715,-26.64,-17.73,96,0
CAAM,4/27/06,-19.3521875,1.931713285,-22.61,-15.98,96,0
CAAM,4/28/06,-22.88104167,1.360886305,-24.75,-20.44,96,0
CAAM,4/29/06,-25.71510417,1.19321326,-27.79,-22.4,96,0
CAAM,4/30/06,-22.67270833,1.399530357,-25.58,-21,96,0
CAAM,5/1/06,-23.67708333,1.875739246,-26.66,-19,96,0
CAAM,5/2/06,-17.6884375,2.311097405,-21.63,-13.28,96,0
CAAM,5/3/06,-16.53739583,2.329920823,-21.18,-11.78,96,0
CAAM,5/4/06,-13.75677083,3.836517471,-21.3,-9.85,96,0
CAAM,5/5/06,-24.08395833,1.544389151,-26.6,-21.26,96,0
CAAM,5/6/06,-27.81583333,0.938673943,-29.68,-26.1,96,0
CAAM,5/7/06,-28.95447917,0.787884402,-29.9,-26.6,96,0
CAAM,5/8/06,-30.4365625,0.382644065,-31.25,-29.69,96,0
CAAM,5/9/06,-31.63572917,0.359949543,-32.2,-30.78,96,0
CAAM,5/10/06,-30.58354167,1.446441717,-32.5,-27.75,96,0
CAAM,5/11/06,-30.68010417,1.154905779,-32.99,-28.74,96,0
CAAM,5/12/06,-33.71895833,0.667421557,-35.07,-32.46,96,0
CAAM,5/13/06,-35.06041667,0.302090668,-35.66,-34.41,96,0
CAAM,5/14/06,-35.35645833,0.281016872,-36.04,-34.45,96,0
CAAM,5/15/06,-30.20166667,1.181601649,-34.95,-28.83,96,0
CAAM,5/16/06,-31.85770833,1.583251471,-34.2,-29.22,96,0
CAAM,5/17/06,-33.50822917,0.831748943,-34.68,-31.7,96,0
CAAM,5/18/06,-33.23625,0.720472433,-34.18,-30.54,96,0
CAAM,5/19/06,-28.858125,2.040038345,-31.46,-24.58,96,0
CAAM,5/20/06,-31.57354167,0.409145397,-32.7,-30.71,96,0
CAAM,5/21/06,-31.33760417,1.334062056,-33.66,-27.93,96,0
CAAM,5/22/06,-32.07125,2.352880094,-34.28,-27.02,96,0